Flag for Oman Weather past 2 weeks in Salalah, Oman

Now
79 °F

Clear.


Feels Like: 82 °F
Forecast: 72 / 87 °F
Wind: 3 mph from Southwest

Location: Salalah Airport

Current Time: Mar 31, 2015 at 1:08:07 AM

Latest Report: Mar 30, 2015 at 11:50 PM


Visibility: 10 mi

Pressure: 29.86 "Hg

Humidity: 79%

Dew point: 72 °F

Location of SalalahLocation

Historic Weather in Salalah — Graph

°F

Salalah temperature yesterday

Maximum temperature yesterday: 86 °F (at 11:50 AM)
Minimum temperature yesterday: 75 °F (at 4:50 AM)
Average temperature yesterday: 81 °F

Past Weeks' High & Low Weather Summary

 TemperatureHumidityPressure
High90 °F (Mar 25, 9:50 AM)89% (Mar 25, 3:00 AM)30.07 "Hg (Mar 25, 3:00 AM)
Low72 °F (Mar 16, 6:50 AM)38% (Mar 25, 9:50 AM)29.80 "Hg (Mar 29, 4:00 PM)
Average80 °F64%29.94 "Hg
* Reported Mar 15 11:50 PM — Mar 30 11:50 PM, Salalah, Weather by CustomWeather, © 2015

Note: Actual official high and low records may vary slightly from our data, if they occured in-between our weather recording intervals... More about our weather records

Advertising

Salalah weather history for previous 24 hours

 ConditionsComfort  
Time TempWeatherWind HumidityBarometerVisibility
11:50 PM
Mon, Mar 30
79 °FClear.3 mph79%29.86 "Hg10 mi
11:00 PM81 °FWarm.1 mph74%29.86 "HgN/A
10:50 PM81 °FWarm.1 mph74%29.86 "HgN/A
9:50 PM81 °FWarm.5 mph79%29.89 "HgN/A
8:50 PM81 °FPassing clouds.5 mph79%29.89 "HgN/A
7:50 PM81 °FWarm.6 mph74%29.86 "HgN/A
6:50 PM81 °FPassing clouds.6 mph74%29.83 "HgN/A
5:50 PM82 °FPassing clouds.7 mph70%29.83 "HgN/A
4:50 PM84 °FWarm.9 mph66%29.80 "HgN/A
3:50 PM84 °FWarm.10 mph62%29.80 "HgN/A
2:50 PM84 °FWarm.14 mph66%29.80 "HgN/A
1:50 PM86 °FPassing clouds.14 mph59%29.83 "HgN/A
12:50 PM86 °FPassing clouds.12 mph55%29.86 "HgN/A
11:50 AM86 °FWarm.9 mph59%29.89 "HgN/A
10:50 AM84 °FWarm.8 mph62%29.92 "HgN/A
9:50 AM84 °FWarm.5 mph66%29.92 "HgN/A
8:50 AM82 °FPassing clouds.5 mph70%29.95 "HgN/A
7:50 AM79 °FSunny.No wind54%29.92 "Hg10 mi
6:50 AM75 °FSunny.5 mph57%29.89 "Hg10 mi
5:50 AM75 °FClear.3 mph61%29.89 "Hg10 mi
4:50 AM75 °FMild.3 mph65%29.86 "HgN/A
3:50 AM77 °FWarm.2 mph69%29.86 "HgN/A
2:50 AM77 °FClear.2 mph79%29.86 "Hg10 mi
1:50 AM79 °FWarm.1 mph74%29.86 "HgN/A
Weather by CustomWeather, © 2015

See weather overviewHow to use our weather pages